When you browse on this site, cookies collect data to enhance your experience and personalize the content and advertising you see.
Visit our Privacy Policy to learn more. By continuing to use the site, you agree to this use of cookies and data.
  • In Hungary
  • List of Countries
  • For 7 days
  • Water Temperature
  • Weather Map
  • News
  • Weather Widgets
  • user-avatar
    Login

    Hourly Weather Borodinsk

    Today, 7 June, Sunday

    Time Temperature Precipitation Wind Pressure Humidity
    00:00 +19°C° 0 mm 1 mps 758 mmHg 78%
    01:00 +17°C° 0 mm 0 mps 758 mmHg 78%
    02:00 +18°C° 0 mm 1 mps 758 mmHg 79%
    03:00 +18°C° 0 mm 1 mps 758 mmHg 80%
    04:00 +17°C° 0 mm 2 mps 758 mmHg 82%
    05:00 +18°C° 0 mm 2 mps 758 mmHg 79%
    06:00 +19°C° 0 mm 3 mps 758 mmHg 76%
    07:00 +20°C° 0 mm 3 mps 758 mmHg 73%
    08:00 +20°C° 0.7 mm 3 mps 758 mmHg 72%
    09:00 +21°C° 0.7 mm 3 mps 758 mmHg 71%
    10:00 +21°C° 0.7 mm 3 mps 758 mmHg 70%
    11:00 +21°C° 0.3 mm 3 mps 758 mmHg 71%
    12:00 +21°C° 0.3 mm 2 mps 758 mmHg 72%
    13:00 +21°C° 0.3 mm 2 mps 758 mmHg 73%
    14:00 +21°C° 0.5 mm 2 mps 758 mmHg 73%
    15:00 +23°C° 0.5 mm 2 mps 758 mmHg 73%
    16:00 +23°C° 0.5 mm 2 mps 758 mmHg 73%
    17:00 +21°C° 2.4 mm 2 mps 758 mmHg 79%
    18:00 +19°C° 2.4 mm 3 mps 758 mmHg 86%
    19:00 +18°C° 2.4 mm 4 mps 757 mmHg 93%
    20:00 +18°C° 0.2 mm 3 mps 758 mmHg 93%
    21:00 +18°C° 0.2 mm 3 mps 758 mmHg 94%
    22:00 +17°C° 0.2 mm 3 mps 758 mmHg 94%
    23:00 +17°C° 0 mm 2 mps 758 mmHg 94%

    Tomorrow, 8 June, Monday

    Time Temperature Precipitation Wind Pressure Humidity
    00:00 +17°C° 0 mm 2 mps 758 mmHg 93%
    01:00 +16°C° 0 mm 1 mps 757 mmHg 93%
    02:00 +16°C° 0.1 mm 1 mps 758 mmHg 93%
    03:00 +16°C° 0.1 mm 1 mps 758 mmHg 93%
    04:00 +16°C° 0.1 mm 2 mps 758 mmHg 93%
    05:00 +17°C° 0 mm 2 mps 758 mmHg 91%
    06:00 +18°C° 0 mm 2 mps 758 mmHg 88%
    07:00 +19°C° 0 mm 2 mps 758 mmHg 86%
    08:00 +20°C° 0.4 mm 2 mps 758 mmHg 79%
    09:00 +22°C° 0.4 mm 3 mps 758 mmHg 72%
    10:00 +24°C° 0.4 mm 3 mps 758 mmHg 66%
    11:00 +25°C° 1.2 mm 4 mps 758 mmHg 62%
    12:00 +25°C° 1.2 mm 4 mps 758 mmHg 59%
    13:00 +26°C° 1.2 mm 4 mps 758 mmHg 56%
    14:00 +26°C° 0.4 mm 4 mps 758 mmHg 54%
    15:00 +26°C° 0.4 mm 3 mps 758 mmHg 52%
    16:00 +27°C° 0.4 mm 3 mps 757 mmHg 50%
    17:00 +26°C° 0.2 mm 4 mps 757 mmHg 54%
    18:00 +23°C° 0.2 mm 4 mps 757 mmHg 58%
    19:00 +22°C° 0.2 mm 4 mps 757 mmHg 62%
    20:00 +21°C° 0.2 mm 4 mps 757 mmHg 63%
    21:00 +20°C° 0.2 mm 4 mps 757 mmHg 63%
    22:00 +19°C° 0.2 mm 3 mps 757 mmHg 64%
    23:00 +18°C° 0 mm 3 mps 758 mmHg 64%

    Day after tomorrow, 9 June, Tuesday

    Time Temperature Precipitation Wind Pressure Humidity
    00:00 +18°C° 0 mm 3 mps 758 mmHg 64%
    01:00 +18°C° 0 mm 3 mps 758 mmHg 64%
    02:00 +18°C° 0 mm 4 mps 758 mmHg 62%
    03:00 +18°C° 0 mm 4 mps 758 mmHg 61%
    04:00 +18°C° 0 mm 4 mps 758 mmHg 59%
    05:00 +19°C° 0 mm 5 mps 759 mmHg 59%
    06:00 +20°C° 0 mm 5 mps 759 mmHg 59%
    07:00 +20°C° 0 mm 5 mps 759 mmHg 58%
    08:00 +22°C° 0 mm 6 mps 760 mmHg 54%
    09:00 +24°C° 0 mm 7 mps 760 mmHg 50%
    10:00 +27°C° 0 mm 7 mps 760 mmHg 46%
    11:00 +28°C° 0 mm 7 mps 760 mmHg 42%
    12:00 +29°C° 0 mm 8 mps 760 mmHg 38%
    13:00 +31°C° 0 mm 8 mps 760 mmHg 34%
    14:00 +30°C° 0 mm 7 mps 760 mmHg 35%
    15:00 +30°C° 0 mm 6 mps 760 mmHg 36%
    16:00 +30°C° 0 mm 6 mps 760 mmHg 37%
    17:00 +29°C° 0 mm 5 mps 760 mmHg 42%
    18:00 +27°C° 0 mm 5 mps 760 mmHg 47%
    19:00 +26°C° 0 mm 5 mps 760 mmHg 52%
    20:00 +25°C° 0 mm 5 mps 760 mmHg 53%
    21:00 +23°C° 0 mm 5 mps 760 mmHg 54%
    22:00 +21°C° 0 mm 5 mps 760 mmHg 55%
    23:00 +21°C° 0 mm 4 mps 761 mmHg 54%

    10 June, Wednesday

    Time Temperature Precipitation Wind Pressure Humidity
    00:00 +20°C° 0 mm 4 mps 761 mmHg 54%
    01:00 +20°C° 0 mm 4 mps 761 mmHg 53%
    02:00 +19°C° 0 mm 4 mps 761 mmHg 54%
    03:00 +19°C° 0 mm 4 mps 761 mmHg 55%
    04:00 +18°C° 0 mm 4 mps 761 mmHg 55%
    05:00 +19°C° 0 mm 3 mps 761 mmHg 57%
    06:00 +20°C° 0 mm 3 mps 761 mmHg 59%
    07:00 +20°C° 0 mm 3 mps 761 mmHg 61%
    08:00 +22°C° 0 mm 3 mps 761 mmHg 58%
    09:00 +24°C° 0 mm 2 mps 761 mmHg 55%
    10:00 +26°C° 0 mm 2 mps 761 mmHg 52%
    11:00 +26°C° 0 mm 2 mps 761 mmHg 53%
    12:00 +26°C° 0 mm 2 mps 761 mmHg 54%
    13:00 +26°C° 0 mm 2 mps 762 mmHg 55%
    14:00 +27°C° 0 mm 2 mps 761 mmHg 52%
    15:00 +28°C° 0 mm 2 mps 761 mmHg 49%
    16:00 +28°C° 0 mm 3 mps 761 mmHg 47%
    17:00 +28°C° 0 mm 3 mps 761 mmHg 49%
    18:00 +27°C° 0 mm 3 mps 761 mmHg 51%
    19:00 +26°C° 0 mm 4 mps 760 mmHg 54%
    20:00 +25°C° 0 mm 4 mps 761 mmHg 52%
    21:00 +23°C° 0 mm 4 mps 761 mmHg 50%
    22:00 +23°C° 0 mm 4 mps 761 mmHg 47%
    23:00 +22°C° 0 mm 4 mps 761 mmHg 48%

    11 June, Thursday

    Time Temperature Precipitation Wind Pressure Humidity
    00:00 +22°C° 0 mm 4 mps 761 mmHg 48%
    01:00 +21°C° 0 mm 4 mps 760 mmHg 49%
    02:00 +21°C° 0 mm 4 mps 760 mmHg 51%
    03:00 +21°C° 0 mm 3 mps 760 mmHg 54%
    04:00 +20°C° 0 mm 3 mps 760 mmHg 56%
    05:00 +21°C° 0 mm 3 mps 760 mmHg 58%
    06:00 +22°C° 0 mm 3 mps 760 mmHg 59%
    07:00 +24°C° 0 mm 3 mps 760 mmHg 61%
    08:00 +25°C° 0 mm 4 mps 760 mmHg 56%
    09:00 +27°C° 0 mm 4 mps 760 mmHg 51%
    10:00 +29°C° 0 mm 5 mps 760 mmHg 46%
    11:00 +32°C° 0 mm 4 mps 760 mmHg 42%
    12:00 +33°C° 0 mm 4 mps 760 mmHg 37%
    13:00 +34°C° 0 mm 4 mps 760 mmHg 33%
    14:00 +34°C° 0 mm 4 mps 759 mmHg 32%
    15:00 +34°C° 0 mm 3 mps 759 mmHg 32%
    16:00 +34°C° 0 mm 3 mps 759 mmHg 32%
    17:00 +33°C° 0 mm 3 mps 758 mmHg 36%
    18:00 +31°C° 0 mm 2 mps 758 mmHg 39%
    19:00 +31°C° 0 mm 1 mps 758 mmHg 43%
    20:00 +29°C° 0 mm 2 mps 758 mmHg 44%
    21:00 +27°C° 0 mm 2 mps 758 mmHg 45%
    22:00 +25°C° 0 mm 2 mps 758 mmHg 46%
    23:00 +25°C° 0 mm 2 mps 758 mmHg 46%

    12 June, Friday

    Time Temperature Precipitation Wind Pressure Humidity
    00:00 +24°C° 0 mm 2 mps 757 mmHg 47%
    01:00 +24°C° 0 mm 2 mps 757 mmHg 47%
    02:00 +23°C° 0 mm 2 mps 757 mmHg 47%
    03:00 +23°C° 0 mm 1 mps 757 mmHg 48%
    04:00 +22°C° 0 mm 1 mps 756 mmHg 48%
    05:00 +23°C° 0 mm 1 mps 756 mmHg 48%
    06:00 +24°C° 0 mm 1 mps 756 mmHg 49%
    07:00 +25°C° 0 mm 1 mps 756 mmHg 49%
    08:00 +26°C° 0.1 mm 1 mps 756 mmHg 45%
    09:00 +28°C° 0.1 mm 1 mps 756 mmHg 42%
    10:00 +29°C° 0.1 mm 1 mps 756 mmHg 38%
    11:00 +30°C° 0 mm 2 mps 756 mmHg 35%
    12:00 +31°C° 0 mm 2 mps 755 mmHg 32%
    13:00 +32°C° 0 mm 2 mps 755 mmHg 28%
    14:00 +34°C° 0 mm 2 mps 755 mmHg 28%
    15:00 +34°C° 0 mm 2 mps 754 mmHg 28%
    16:00 +34°C° 0 mm 2 mps 754 mmHg 27%
    17:00 +32°C° 0 mm 2 mps 754 mmHg 32%
    18:00 +32°C° 0 mm 1 mps 753 mmHg 38%
    19:00 +31°C° 0 mm 1 mps 753 mmHg 43%
    20:00 +28°C° 0.1 mm 2 mps 753 mmHg 48%
    21:00 +26°C° 0.1 mm 4 mps 753 mmHg 54%
    22:00 +23°C° 0.1 mm 5 mps 753 mmHg 59%
    23:00 +22°C° 0.1 mm 4 mps 753 mmHg 65%
    Show more